Location: Aranbee
(34.0885°N, 118.2342°W)
Time: 10:04:40
(UTC+00:00)

S-56A Canister/Altair - Pass Details

Date: 07 August 2021
Orbit: 632 x 2500 km, 38.9° (Epoch: 18 September)

Event Time Altitude Azimuth Distance (km) Brightness Sun altitude
Rises 04:30:12 0° 290° (WNW) 6,179 13.5 -19.3°
Reaches altitude 10° 04:35:02 10° 281° (W) 5,146 12.6 -20.1°
Maximum altitude 04:46:40 29° 229° (SW) 3,479 10.9 -21.9°
Enters shadow 04:55:15 13° 179° (S) 4,043 10.8 -23.3°
